User: anonymous   Login
Location: *
(34.8620°S, 39.3380°E)
Time: 14:43:01
(UTC+00:00)
Language:

Lacrosse 4 Rocket - Orbit

View from above orbital plane
View from above orbital plane
View from above satellite
View from above satellite

Ground track
Ground track

The orbit data is extracted from the following two-line orbital elements,

1 26474U 00047B   21297.90879023  .00000260  00000-0  33172-4 0  9991
2 26474  67.9926 154.3890 0055080   8.6849 351.5233 14.96264006153208
Epoch (UTC): 24 October 2021 21:48:39
Eccentricity: 0.0055080
inclination: 67.9926°
perigee height: 540 km
apogee height: 617 km
right ascension of ascending node: 154.3890°
argument of perigee: 8.6849°
revolutions per day: 14.96264006
mean anomaly at epoch: 351.5233°
orbit number at epoch: 15320

The dashed part of the orbit path shows where the satellite is in the earth's shadow,  

DLR